STARLINK-11157, 60122

Orbit data source: Space-Track

STARLINK-11157, 60122 is a payload satellite owned by SpaceX/Seattle (US) in LEO that was launched on Mon, 24 Jun 2024 UTC via an FALCON 9 launch vehicle from the Air Force Western Test Range (AFWTR). Payload-class satellites include a variety of spacecraft equipped with specific instruments for various scientific and technological missions. These include communications satellites like Starlink; space stations such as the ISS; scientific satellites like the Hubble; Earth observation satellites from companies like Planet Labs, Umbra, and HawkEye 360; GPS; miniature CubeSats for education and research; and military/defense satellites.

Loading next visibility...
Identifier
60122, 2024-118K
Orbit
LEO
Last TLE update
13 hours ago
Origin
Manufacturer
SpaceX/Seattle
Mission
Operational Commercial Communications
Bus & Motor
STARLINK V2M, Unknown motor
Mass
730 kg wet, ~700 kg dry
Launch date (UTC)
2024-06-24 (1 year ago)
Launch vehicle
FALCON 9
Launch site
Air Force Western Test Range (AFWTR)
Object type
Payload
Rocket body
Debris
Shape & HBR
Box + 2 Pan, 29 m
Radar Cross Section
33.884 m², Large (>1 m²)

Expand to show TLE details & history

TLE from 13 hours ago
0 STARLINK-11157
1 60122U 24118K   25181.86269608  .00001549  00000-0  17643-4 0  9993
2 60122  53.1588  22.4841 0000849  85.7520 274.3594 15.69707257 59223
Epoch: 2025-06-30T20:42Z
TLE epoch observation values (Epoch: 2025-06-30T20:42:16.941Z)
Latitude
-0.00009°
Longitude
152.74704°
Altitude
360.606 km
Speed
7.694 km/s
True Right ascension
01h 29m 56s
True Declination
0° 00' 00"
Sunlit
Object was in daylight at epoch
Visualization orbit readout
Latitude
-53.26446°
Longitude
56.59638°
Altitude
378.805 km
Speed
7.682 km/s
Apparent Right ascension
13h 24m 15s
Apparent Declination
-71° 48' 16"
Sunlit
Object is in full shadow
Visualization observer readout
Local Sidereal Time
21:42:21
Azimuth
202.698° SW
Elevation
-48.187°
Doppler factor
1
Orbital elements
Apogee altitude
360.568 km
Perigee altitude
359.423 km
Semi-major axis
6,738.132 km
Eccentricity
0.00008
Inclination
53.1588°
RAAN
22.4841°
Arg. of periapsis
85.752°
True anomaly
Unknown
Mean anomaly
274.3594°
Eccentric anomaly
Unknown
Mean motion
3.92404 °/min
Orbital period
91.74 mins
BSTAR
0.000017643
Loading maneuver chart data...
Loading SW <> Apogee altitude chart data...
Loading historical data...
Loading historical data...
Loading historical data...
Loading historical data...
Loading historical data...
Loading historical data...
Loading historical data...

STARLINK-11157 Visibility forecast

Observer location: undefined°, undefined°

Span
Click to sort rows by Start time (UTC) header in descending order
Start Az.
Max El. time (UTC)
Max El. Az.
Max El.
End time (UTC)
End Az.
4 mins2025-07-01 15:11:57.888Z178.14° S2025-07-01 15:13:57.888Z133.972° SE18.316°2025-07-01 15:15:57.888Z86.42° E
4 mins2025-07-01 16:47:57.888Z278.321° WNW2025-07-01 16:48:57.888Z311.398° NW27.639°2025-07-01 16:51:57.888Z33.239° NE
|